295 
ASUS46 KSEW 271210
RWRWA 

WASHINGTON REGIONAL WEATHER ROUNDUP
NATIONAL WEATHER SERVICE SEATTLE WA
500 AM PDT MON MAY 27 2019

NOTE:"FAIR" INDICATES FEW OR NO CLOUDS BELOW 12,000 FEET WITH NO 
SIGNIFICANT WEATHER AND/OR OBSTRUCTIONS TO VISIBILITY.

WAZ507-509-555>559-271300-
SEATTLE, TACOMA, EVERETT, AND VICINITY
  
CITY           SKY/WX    TMP DP  RH WIND       PRES   REMARKS
EVERETT        PTCLDY    57  49  74 CALM      29.95R                  
6HR MIN TEMP:  55; 6HR MAX TEMP:  62;                                

BOEING FIELD   PTCLDY    55  51  86 CALM      29.93S                  
6HR MIN TEMP:  55; 6HR MAX TEMP:  62;                                

RENTON         PTCLDY    56  53  90 SE6       29.93S                  
6HR MIN TEMP:  56; 6HR MAX TEMP:  62;                                

SEATAC AIRPORT PTCLDY    56  52  86 SE5       29.94R                  
6HR MIN TEMP:  56; 6HR MAX TEMP:  66;                                

JBLM-MCCHORD   CLEAR     49  49 100 CALM      29.94S                  
6HR MIN TEMP:  48; 6HR MAX TEMP:  56;                                

PUYALLUP       DRIZZLE   52  52 100 CALM      29.95R                  
BREMERTON      CLEAR     48  47  96 CALM      29.94S FOG              
6HR MIN TEMP:  47; 6HR MAX TEMP:  55;                                

JBLM-FT LEWIS  NOT AVBL                                               
TACOMA NARROWS CLEAR     52  50  93 CALM      29.94S                  
6HR MIN TEMP:  51; 6HR MAX TEMP:  60;                                

$$
 
WAZ001-503-506-510-514-515-271300-
NORTH INTERIOR
  
CITY           SKY/WX    TMP DP  RH WIND       PRES   REMARKS
BELLINGHAM     MOCLDY    50  47  89 CALM      29.93R FOG              
6HR MIN TEMP:  50; 6HR MAX TEMP:  58;                                

FRIDAY HARBOR  CLEAR     51  48  89 CALM      29.93S                  
6HR MIN TEMP:  50; 6HR MAX TEMP:  56;                                

EASTSOUND      CLEAR     55  52  88 CALM      29.91S                  
PORT ANGELES   CLOUDY    48  47  96 CALM      29.94R                  
6HR MIN TEMP:  46; 6HR MAX TEMP:  57;                                

EDIZ HOOK      PTSUNNY   51  48  91 CALM      29.93R                  
6HR MIN TEMP:  50; 6HR MAX TEMP:  56;                                

PORT TOWNSEND  CLOUDY    48  48 100 CALM      29.92S                  
NAS WHIDBEY    CLEAR     51  46  83 SE3       29.97R                  
6HR MIN TEMP:  51; 6HR MAX TEMP:  57;                                

ARLINGTON      PTCLDY    49  49 100 CALM      29.95R                  
6HR MIN TEMP:  49; 6HR MAX TEMP:  58;                                

BURLINGTON     CLEAR     52  52 100 CALM      29.93S FOG              
$$
 
WAZ020-022-039-040-504-511-512-271300-
SOUTHWEST INTERIOR
  
CITY           SKY/WX    TMP DP  RH WIND       PRES   REMARKS
SHELTON        CLEAR     48  45  89 NW3       29.92R                  
6HR MIN TEMP:  46; 6HR MAX TEMP:  55;                                

OLYMPIA        PTCLDY    46  45  96 CALM      29.94S FOG              
6HR MIN TEMP:  46; 6HR MAX TEMP:  55;                                

CHEHALIS       FAIR      52  52 100 CALM      29.95R                  
KELSO          CLOUDY    57  54  89 VRB3      29.97R                  
6HR MIN TEMP:  57; 6HR MAX TEMP:  64; 6HR PCP: TRACE;                

VANCOUVER      CLOUDY    59  54  83 CALM      29.95R                  
6HR MIN TEMP:  58; 6HR MAX TEMP:  63;                                

SCAPPOOSE, OR  CLOUDY    56  54  93 CALM      29.95R                  
6HR MIN TEMP:  55; 6HR MAX TEMP:  61;                                

PORTLAND, OR   CLOUDY    60  54  80 S6        29.96R                  
6HR MIN TEMP:  59; 6HR MAX TEMP:  64;                                

$$
 
WAZ021-516-517-271300-
WASHINGTON COAST
  
CITY           SKY/WX    TMP DP  RH WIND       PRES   REMARKS
FORKS          MOCLDY    51  51 100 W3        29.93S                  
6HR MIN TEMP:  50; 6HR MAX TEMP:  56;                                

HOQUIAM        CLOUDY    54  54 100 SW9       29.97R FOG              
6HR MIN TEMP:  51; 6HR MAX TEMP:  56;                                

ASTORIA, OR    CLOUDY    55  51  86 SW6       29.97S                  
6HR MIN TEMP:  54; 6HR MAX TEMP:  56;                                

$$
 
WAZ019-023-024-040-567>569-271300-
CASCADE MOUNTAINS AND COLUMBIA GORGE
  
CITY           SKY/WX    TMP DP  RH WIND       PRES   REMARKS
STAMPEDE PASS  CLOUDY    52  40  63 CALM      30.00S                  
6HR MIN TEMP:  49; 6HR MAX TEMP:  52;                                

TROUTDALE, OR  CLOUDY    59  55  87 CALM      29.96R                  
6HR MIN TEMP:  57; 6HR MAX TEMP:  63;                                

HOOD RIVER, OR CLOUDY    54  52  94 CALM      29.94S                  
THE DALLES, OR CLOUDY    60  52  74 W5        29.90S                  
6HR MIN TEMP:  59; 6HR MAX TEMP:  62; 6HR PCP: TRACE;                

$$

WAZ026-027-041>044-520-521-271300-
EAST SLOPES
  
CITY           SKY/WX    TMP DP  RH WIND       PRES   REMARKS
OMAK           CLEAR     53  44  71 N12       29.94S                  
6HR MIN TEMP:  53; 6HR MAX TEMP:  60;                                

WENATCHEE      CLOUDY    56  49  77 NW8       29.92F                  
6HR MIN TEMP:  56; 6HR MAX TEMP:  60;                                

ELLENSBURG     CLOUDY    57  46  66 NW9       29.93R                  
6HR MIN TEMP:  54; 6HR MAX TEMP:  58;                                

YAKIMA         CLOUDY    58  47  66 CALM      29.92R                  
6HR MIN TEMP:  54; 6HR MAX TEMP:  60;                                

SUNNYSIDE ARPT CLOUDY    57  50  77 W7        29.89S                  
6HR MIN TEMP:  57; 6HR MAX TEMP:  65;                                

YAKIMA TC      CLOUDY    55  46  70 CALM      29.90S                  
6HR MIN TEMP:  53; 6HR MAX TEMP:  60;                                

$$

WAZ028-034-035-271300-
COLUMBIA BASIN
  
CITY           SKY/WX    TMP DP  RH WIND       PRES   REMARKS
EPHRATA        CLOUDY    59  45  59 N8        29.89S                  
6HR MIN TEMP:  59; 6HR MAX TEMP:  64;                                

MOSES LAKE     CLOUDY    58  47  66 N8        29.90R                  
6HR MIN TEMP:  57; 6HR MAX TEMP:  64;                                

PASCO          PTCLDY    54  49  83 CALM      29.87S                  
6HR MIN TEMP:  51; 6HR MAX TEMP:  62;                                

RICHLAND ARPT  PTSUNNY   56  49  76 NW3       29.88R                  
6HR MIN TEMP:  55; 6HR MAX TEMP:  65;                                

HERMISTON, OR  CLOUDY    57  52  83 S3        29.87R                  
6HR MIN TEMP:  57; 6HR MAX TEMP:  61;                                

$$

WAZ036>038-271300-
NORTHEAST WASHINGTON
  
CITY           SKY/WX    TMP DP  RH WIND       PRES   REMARKS
SPOKANE GEIGER PTCLDY    50  37  61 CALM      29.91S                  
6HR MIN TEMP:  49; 6HR MAX TEMP:  58;                                

SPOKANE FELTS  PTCLDY    47  42  83 CALM      29.91S                  
6HR MIN TEMP:  47; 6HR MAX TEMP:  59;                                

FAIRCHILD AFB  CLEAR     48  38  67 N8        29.91R                  
6HR MIN TEMP:  48; 6HR MAX TEMP:  57;                                

COEURDALENE,ID MOCLDY    51  37  58 NE12      29.93R                  
6HR MIN TEMP:  50; 6HR MAX TEMP:  54;                                

DEER PARK      CLEAR     50  36  58 N10       29.92S                  
6HR MIN TEMP:  44; 6HR MAX TEMP:  60;                                

$$

WAZ029>033-271300-
SOUTHEAST WASHINGTON
  
CITY           SKY/WX    TMP DP  RH WIND       PRES   REMARKS
PULLMAN        PTCLDY    44  41  89 CALM      29.89R                  
6HR MIN TEMP:  44; 6HR MAX TEMP:  53;                                

LEWISTON, ID   CLEAR     52  48  86 CALM      29.87R                  
6HR MIN TEMP:  51; 6HR MAX TEMP:  57;                                

WALLA WALLA    CLOUDY    55  51  86 SE3       29.86S                  
6HR MIN TEMP:  53; 6HR MAX TEMP:  59;                                

PENDLETON, OR  CLOUDY    55  51  86 SW5       29.87R                  
6HR MIN TEMP:  53; 6HR MAX TEMP:  55;                                

$$